This is the latest recevied weather packets stored in our database for station/object SQ5AAG-2. If no packets are shown the sender has not sent any weather packets the latest 10 day(s).
| Time | Temp. | Humidity | Pressure | Rain* | Wind** | Luminosity | Snow |
|---|---|---|---|---|---|---|---|
| 1787468169 | 15.56° C | 77% | 1002.6 hPa | 0 mm | - | - | - |
| 1787467869 | 15.56° C | 77% | 1002.6 hPa | 0 mm | - | - | - |
| 1787467569 | 15.56° C | 77% | 1002.5 hPa | 0 mm | - | - | - |
| 1787467270 | 15.56° C | 77% | 1002.4 hPa | 0 mm | - | - | - |
| 1787466968 | 15.56° C | 78% | 1002.4 hPa | 0 mm | - | - | - |
| 1787466668 | 15.56° C | 78% | 1002.5 hPa | 0 mm | - | - | - |
| 1787466408 | 15.56° C | 78% | 1002.2 hPa | 0 mm | - | - | - |
| 1787466368 | 15.56° C | 78% | 1002.2 hPa | 0 mm | - | - | - |
| 1787466067 | 15.56° C | 78% | 1002.3 hPa | 0 mm | - | - | - |
| 1787465767 | 15.56° C | 77% | 1002.3 hPa | 0 mm | - | - | - |
| 1787465467 | 16.11° C | 75% | 1002.1 hPa | 0 mm | - | - | - |
| 1787465167 | 16.11° C | 74% | 1002.1 hPa | 0 mm | - | - | - |
| 1787464902 | 16.67° C | 73% | 1002.2 hPa | 0 mm | - | - | - |
| 1787464866 | 16.67° C | 73% | 1002.2 hPa | 0 mm | - | - | - |
| 1787464566 | 17.22° C | 73% | 1002.2 hPa | 0 mm | - | - | - |
| 1787464266 | 17.22° C | 74% | 1002.3 hPa | 0 mm | - | - | - |
| 1787463965 | 17.22° C | 73% | 1002.3 hPa | 0 mm | - | - | - |
| 1787463665 | 17.22° C | 75% | 1002.1 hPa | 0 mm | - | - | - |
| 1787463365 | 17.22° C | 75% | 1002.2 hPa | 0 mm | - | - | - |
| 1787463065 | 16.67° C | 76% | 1002 hPa | 0 mm | - | - | - |
| 1787462765 | 16.67° C | 77% | 1002 hPa | 0 mm | - | - | - |
| 1787462501 | 16.67° C | 79% | 1002.1 hPa | 0 mm | - | - | - |
| 1787462465 | 16.67° C | 79% | 1002.1 hPa | 0 mm | - | - | - |
| 1787462164 | 16.11° C | 79% | 1002 hPa | 0 mm | - | - | - |
| 1787461865 | 16.11° C | 79% | 1002 hPa | 0 mm | - | - | - |
* Rain latest hour (hover to see other rain measurements)
** Current wind speed in m/s (hover to see current wind gust speed)